Location: Moy Burn
(57.3833°N, 4.0667°W)
Time: 11:21:50
(UTC+00:00)

Cosmos 1733 Rocket - Pass Details

Date: 08 August 2020
Orbit: 603 x 628 km, 82.5° (Epoch: 21 September)

Event Time Altitude Azimuth Distance (km) Brightness Sun altitude
Exits shadow 22:51:01 22° 137° (SE) 1,347 4.2 -14.4°
Maximum altitude 22:53:02 34° 91° (E) 1,036 4.0 -14.5°
Drops below altitude 10° 22:57:02 10° 27° (NNE) 2,006 6.3 -14.7°
Sets 22:59:25 0° 18° (NNE) 2,921 7.4 -14.9°
